Regional Weather Roundup
Issued by NWS

Home | Current Version | Previous Version | Graphics & Text | Print | Product List | Glossary On
Versions: 1 2 3 4 5 6 7 8 9 10 11 12 13 14 15 16 17 18 19 20 21 22 23 24 25 26 27 28 29 30 31 32 33 34 35 36 37 38 39 40 41 42 43 44 45 46 47 48 49 50
000
ASUS43 KDTX 150210
RWRMI
MICHIGAN HOURLY REGIONAL WEATHER ROUNDUP
NATIONAL WEATHER SERVICE DETROIT/PONTIAC MI
1000 PM EDT SUN SEP 14 2014

NOTE: "FAIR" INDICATES FEW OR NO CLOUDS BELOW 12,000 FEET WITH NO
SIGNIFICANT WEATHER AND/OR OBSTRUCTION TO VISIBILITY.

MIZ047>049-052>055-059>063-066>070-074>076-081>083-150300-
SOUTHEAST LOWER MICHIGAN

CITY           SKY/WX    TMP DP  RH WIND       PRES   REMARKS
ADRIAN         CLEAR     50  46  86 CALM      30.22S
ALMA           CLEAR     45  44  95 S5        30.19F
ANN ARBOR      CLEAR     44  41  89 CALM      30.21S
BAD AXE        PTCLDY    48  45  89 S5        30.19F
CARO           CLEAR     47  46  98 CALM      30.19F
DETROIT CITY   CLEAR     55  44  66 S3        30.22S
DETROIT        PTCLDY    54  45  71 CALM      30.22S
FLINT          CLEAR     50  45  83 S3        30.21R
GROSSE ILE     CLEAR     55  46  71 CALM      30.21S
HILLSDALE      CLEAR     47  46  98 CALM      30.21F
HOWELL         CLEAR     50  46  84 CALM      30.21S

CITY           SKY/WX    TMP DP  RH WIND       PRES   REMARKS
JACKSON        CLEAR     49  45  86 CALM      30.21S
LAMBERTVILLE   CLEAR     50  46  87 CALM      30.22F
LANSING        CLEAR     49  45  86 CALM      30.22R
LAPEER         FAIR      49  45  86 CALM      30.21S
MASON          CLEAR     46  45  93 CALM      30.21S
MONROE         CLEAR     48  46  93 CALM      30.20F
MT. CLEMENS    CLEAR     53  43  69 SW2       30.20S
PONTIAC        PTCLDY    49  44  83 CALM      30.20S
PORT HOPE        N/A     53  44  71 CALM      30.17F
PORT HURON     CLOUDY    52  48  87 CALM      30.21F
TRI CITIES     CLEAR     51  45  79 CALM      30.20F
TROY           CLEAR     55  43  63 CALM      30.23S
SAGINAW HB     CLEAR     48  46  93 S3        30.19S
$$
MIZ043>046-050>051-056>058-064>065-071>073-077>080-150300-
SOUTHWEST LOWER MICHIGAN

CITY           SKY/WX    TMP DP  RH WIND       PRES   REMARKS
BATTLE CREEK   CLEAR     54  45  71 CALM      30.21S
BENTON HARBOR  CLEAR     49  47  93 CALM      30.19F
BIG RAPIDS     CLEAR     45  45 100 S3        30.17S
COLDWATER      CLEAR     49  48  96 CALM      30.21S
FREMONT        FAIR      48  44  84 CALM      30.18S
HOLLAND        CLEAR     51  46  83 SE3       30.19F
GRAND RAPIDS   CLEAR     49  44  83 S5        30.20S
IONIA          FAIR      52  45  77 CALM      30.19F
KALAMAZOO      CLEAR     51  44  77 CALM      30.21S
LUDINGTON      CLEAR     55  49  82 SE6       30.15S
MARSHALL       CLEAR     46  43  91 CALM      30.21S
MOUNT PLEASANT CLEAR     46  44  92 CALM      30.18F
MUSKEGON       CLEAR     50  45  83 SE5       30.18F
SOUTH HAVEN    CLEAR     49  48  95 CALM      30.19F
$$
MIZ016>042-150300-
NORTHERN LOWER MICHIGAN

CITY           SKY/WX    TMP DP  RH WIND       PRES   REMARKS
ALPENA         PTCLDY    48  45  89 S3        30.13F
BEAVER ISLAND  CLOUDY    59  52  77 SW12      30.06F
BELLAIRE       PTCLDY    52  44  75 S5        30.12F
CADILLAC       CLEAR     48  44  84 S6        30.14S
CHARLEVOIX     MOCLDY    55  46  72 S8        30.12S
FRANKFORT      PTCLDY    55  46  71 S8G16     30.11F
GAYLORD        MOCLDY    49  43  80 SW13      30.12S
GRAYLING       CLEAR     52  44  74 S5        30.14F
HARBOR SPRINGS MOCLDY    55  44  68 CALM      30.10F
HOUGHTON LAKE  CLEAR     51  44  77 S8        30.16S
MANISTEE       CLEAR     52  43  71 CALM      30.14F
OSCODA         PTCLDY    47  45  94 SW3       30.15F
PELLSTON       MOCLDY    51  44  77 S3        30.09F
ROGERS CITY    CLOUDY    51  47  87 S9        30.12F
TRAVERSE CITY  PTCLDY    54  43  66 SW8       30.11S
$$
MIZ007>008-015-150300-
EASTERN UPPER MICHIGAN

CITY           SKY/WX    TMP DP  RH WIND       PRES   REMARKS
KINROSS        CLOUDY    52  46  82 S6        30.06F
MACKINAC ISLAN CLOUDY    56  45  67 S8        30.08S
NEWBERRY       PTCLDY    51  48  89 SW12      30.04S
S. S. MARIE    CLOUDY    51  45  79 S6        30.05F
MUNISING         N/A     56  48  74 CALM      30.05R
$$
MIZ004>006-011>014-085-150300-
CENTRAL UPPER MICHIGAN

CITY           SKY/WX    TMP DP  RH WIND       PRES   REMARKS
MANISTIQUE     PTCLDY    55  52  87 SW7       30.04S
ESCANABA       CLOUDY    55  48  76 SW8       30.05S
MENOMINEE      PTCLDY    55  48  76 SW5       30.06S
SAWYER-GWINN   CLEAR     50  46  87 W3        30.06R
$$
MIZ001>003-009>011-084-150300-
WESTERN UPPER MICHIGAN

CITY           SKY/WX    TMP DP  RH WIND       PRES   REMARKS
IRON MOUNTAIN  CLOUDY    53  43  68 NW5       30.06R
HOUGHTON       CLOUDY    52  41  66 W15       30.02R
COPPER HARBOR    N/A     55  40  56 NW9G18    29.99S
IRONWOOD       MOCLDY    45  45 100 SW3       30.06S
$$

ABBREVIATIONS USED IN REMARKS
   TC - TEMPERATURE IN CELSIUS
  WCI - WIND CHILL INDEX
   HX - HEAT INDEX
  VSB - VISIBILITY



USA.gov is the U.S. government's official web portal to all federal, state and local government web resources and services.